contact: severine.martini@mio.osupytheas.fr, dominique.lefevre@mio.osupytheas.fr
Project:EMSO Ligure-ouest http://www.emso-fr.org/EMSO-France
Sensor Microcat Sea-Bird SBE37 SMP,  Serial 57510 
DOI : "https://doi.org/10.17882/97948" 
Title:EMSO Ligure Ouest : Data Bathybot capteur Microcat - deploiement 2023-04-28
Datetime,Profondeur,Latitude,Longitude,Temperature,Conductivite,Pression,Salinite
time,m,degree_north,degree_east,degree_C,S/m,db,PSU 
2023-11-23T00:00:49,2420,42.8014,5.9826,13.2978,4.35685,2453.559,36.2112
2023-11-23T00:03:49,2420,42.8014,5.9826,13.2978,4.35781,2453.537,36.2201
2023-11-23T00:06:49,2420,42.8014,5.9826,13.2975,4.35711,2453.574,36.2138
2023-11-23T00:09:49,2420,42.8014,5.9826,13.2974,4.35664,2453.559,36.2096
2023-11-23T00:12:49,2420,42.8014,5.9826,13.2976,4.35689,2453.574,36.2117
2023-11-23T00:15:49,2420,42.8014,5.9826,13.2975,4.35633,2453.574,36.2065
2023-11-23T00:18:49,2420,42.8014,5.9826,13.2975,4.35701,2453.559,36.2129
2023-11-23T00:21:49,2420,42.8014,5.9826,13.2975,4.35657,2453.559,36.2088
2023-11-23T00:24:49,2420,42.8014,5.9826,13.2978,4.35668,2453.567,36.2095
2023-11-23T00:27:49,2420,42.8014,5.9826,13.2978,4.35634,2453.559,36.2064
2023-11-23T00:30:49,2420,42.8014,5.9826,13.2976,4.35649,2453.544,36.2079
2023-11-23T00:33:49,2420,42.8014,5.9826,13.2976,4.35628,2453.582,36.2059
2023-11-23T00:36:49,2420,42.8014,5.9826,13.2976,4.35688,2453.582,36.2116
2023-11-23T00:39:49,2420,42.8014,5.9826,13.2976,4.36158,2453.559,36.2555
2023-11-23T00:42:49,2420,42.8014,5.9826,13.2975,4.36242,2453.559,36.2635
2023-11-23T00:45:49,2420,42.8014,5.9826,13.2973,4.36252,2453.582,36.2646
2023-11-23T00:48:49,2420,42.8014,5.9826,13.2979,4.36125,2453.544,36.2522
2023-11-23T00:51:49,2420,42.8014,5.9826,13.2977,4.36172,2453.559,36.2568
2023-11-23T00:54:49,2420,42.8014,5.9826,13.2974,4.36221,2453.582,36.2616
2023-11-23T00:57:49,2420,42.8014,5.9826,13.2978,4.36191,2453.559,36.2584
2023-11-23T01:00:50,2420,42.8014,5.9826,13.2977,4.36103,2453.604,36.2503
2023-11-23T01:03:49,2420,42.8014,5.9826,13.2979,4.36033,2453.582,36.2436
2023-11-23T01:06:49,2420,42.8014,5.9826,13.2975,4.35756,2453.582,36.2181
2023-11-23T01:09:49,2420,42.8014,5.9826,13.2979,4.35688,2453.567,36.2113
2023-11-23T01:12:49,2420,42.8014,5.9826,13.2977,4.35697,2453.567,36.2123
2023-11-23T01:15:49,2420,42.8014,5.9826,13.2976,4.35655,2453.604,36.2085
2023-11-23T01:18:49,2420,42.8014,5.9826,13.2976,4.35633,2453.604,36.2064
2023-11-23T01:21:49,2420,42.8014,5.9826,13.2979,4.35560,2453.619,36.1993
2023-11-23T01:24:49,2420,42.8014,5.9826,13.2978,4.35302,2453.582,36.1753
2023-11-23T01:27:49,2420,42.8014,5.9826,13.2979,4.34839,2453.582,36.1320
2023-11-23T01:30:50,2420,42.8014,5.9826,13.2978,4.34818,2453.582,36.1301
2023-11-23T01:33:49,2420,42.8014,5.9826,13.2975,4.34792,2453.604,36.1279
2023-11-23T01:36:49,2420,42.8014,5.9826,13.2977,4.34800,2453.590,36.1285
2023-11-23T01:39:49,2420,42.8014,5.9826,13.2979,4.34836,2453.604,36.1316
2023-11-23T01:42:49,2420,42.8014,5.9826,13.2976,4.34753,2453.582,36.1242
2023-11-23T01:45:49,2420,42.8014,5.9826,13.2979,4.34810,2453.604,36.1292
2023-11-23T01:48:49,2420,42.8014,5.9826,13.2978,4.34821,2453.604,36.1304
2023-11-23T01:51:49,2420,42.8014,5.9826,13.2978,4.34746,2453.604,36.1233
2023-11-23T01:54:49,2420,42.8014,5.9826,13.2979,4.34714,2453.627,36.1202
2023-11-23T01:57:50,2420,42.8014,5.9826,13.2976,4.34709,2453.604,36.1200
2023-11-23T02:00:49,2420,42.8014,5.9826,13.2975,4.34621,2453.627,36.1119
2023-11-23T02:03:49,2420,42.8014,5.9826,13.2974,4.34693,2453.627,36.1187
2023-11-23T02:06:49,2420,42.8014,5.9826,13.2976,4.34554,2453.627,36.1056
2023-11-23T02:09:49,2420,42.8014,5.9826,13.2976,4.34608,2453.604,36.1106
2023-11-23T02:12:49,2420,42.8014,5.9826,13.2974,4.34607,2453.567,36.1107
2023-11-23T02:15:49,2420,42.8014,5.9826,13.2974,4.34600,2453.612,36.1101
2023-11-23T02:18:49,2420,42.8014,5.9826,13.2977,4.34693,2453.627,36.1185
2023-11-23T02:21:49,2420,42.8014,5.9826,13.2974,4.34589,2453.627,36.1090
2023-11-23T02:24:49,2420,42.8014,5.9826,13.2975,4.34560,2453.590,36.1063
2023-11-23T02:27:49,2420,42.8014,5.9826,13.2980,4.34646,2453.612,36.1138
2023-11-23T02:30:49,2420,42.8014,5.9826,13.2977,4.35070,2453.604,36.1538
2023-11-23T02:33:49,2420,42.8014,5.9826,13.2977,4.35660,2453.627,36.2089
2023-11-23T02:36:49,2420,42.8014,5.9826,13.2976,4.35735,2453.635,36.2159
2023-11-23T02:39:49,2420,42.8014,5.9826,13.2973,4.35598,2453.627,36.2034
2023-11-23T02:42:49,2420,42.8014,5.9826,13.2975,4.35559,2453.649,36.1996
2023-11-23T02:45:49,2420,42.8014,5.9826,13.2975,4.35604,2453.649,36.2037
2023-11-23T02:48:49,2420,42.8014,5.9826,13.2974,4.35284,2453.627,36.1740
2023-11-23T02:51:49,2420,42.8014,5.9826,13.2978,4.35232,2453.635,36.1687
2023-11-23T02:54:49,2420,42.8014,5.9826,13.2979,4.35268,2453.627,36.1720
2023-11-23T02:57:49,2420,42.8014,5.9826,13.2977,4.35216,2453.627,36.1673
2023-11-23T03:00:49,2420,42.8014,5.9826,13.2972,4.35037,2453.627,36.1510
2023-11-23T03:03:50,2420,42.8014,5.9826,13.2982,4.35010,2453.627,36.1476
2023-11-23T03:06:49,2420,42.8014,5.9826,13.2977,4.35159,2453.672,36.1621
2023-11-23T03:09:49,2420,42.8014,5.9826,13.2978,4.35040,2453.627,36.1508
2023-11-23T03:12:49,2420,42.8014,5.9826,13.2976,4.35168,2453.649,36.1629
2023-11-23T03:15:49,2420,42.8014,5.9826,13.2975,4.35146,2453.635,36.1610
2023-11-23T03:18:49,2420,42.8014,5.9826,13.2978,4.35177,2453.649,36.1635
2023-11-23T03:21:49,2420,42.8014,5.9826,13.2977,4.35105,2453.649,36.1570
2023-11-23T03:24:49,2420,42.8014,5.9826,13.2977,4.35077,2453.664,36.1544
2023-11-23T03:27:49,2420,42.8014,5.9826,13.2975,4.35130,2453.635,36.1594
2023-11-23T03:30:50,2420,42.8014,5.9826,13.2979,4.35103,2453.649,36.1565
2023-11-23T03:33:49,2420,42.8014,5.9826,13.2978,4.35161,2453.590,36.1621
2023-11-23T03:36:49,2420,42.8014,5.9826,13.2978,4.35068,2453.649,36.1534
2023-11-23T03:39:49,2420,42.8014,5.9826,13.2975,4.35146,2453.657,36.1610
2023-11-23T03:42:49,2420,42.8014,5.9826,13.2981,4.35164,2453.664,36.1621
2023-11-23T03:45:49,2420,42.8014,5.9826,13.2974,4.35359,2453.627,36.1810
2023-11-23T03:48:49,2420,42.8014,5.9826,13.2977,4.35436,2453.672,36.1879
2023-11-23T03:51:49,2420,42.8014,5.9826,13.2977,4.35345,2453.627,36.1794
2023-11-23T03:54:49,2420,42.8014,5.9826,13.2976,4.35771,2453.672,36.2193
2023-11-23T03:57:49,2420,42.8014,5.9826,13.2975,4.36020,2453.649,36.2427
2023-11-23T04:00:49,2420,42.8014,5.9826,13.2973,4.36957,2453.672,36.3304
2023-11-23T04:03:49,2420,42.8014,5.9826,13.2978,4.36707,2453.649,36.3067
2023-11-23T04:06:49,2420,42.8014,5.9826,13.2978,4.36452,2453.649,36.2828
2023-11-23T04:09:49,2420,42.8014,5.9826,13.2978,4.36656,2453.672,36.3019
2023-11-23T04:12:49,2420,42.8014,5.9826,13.2975,4.36697,2453.649,36.3060
2023-11-23T04:15:49,2420,42.8014,5.9826,13.2973,4.36719,2453.672,36.3082
2023-11-23T04:18:49,2420,42.8014,5.9826,13.2978,4.36722,2453.649,36.3080
2023-11-23T04:21:49,2420,42.8014,5.9826,13.2976,4.36554,2453.672,36.2925
2023-11-23T04:24:49,2420,42.8014,5.9826,13.2975,4.36399,2453.612,36.2781
2023-11-23T04:27:49,2420,42.8014,5.9826,13.2978,4.36249,2453.649,36.2639
2023-11-23T04:30:50,2420,42.8014,5.9826,13.2979,4.36541,2453.627,36.2910
2023-11-23T04:33:49,2420,42.8014,5.9826,13.2976,4.36294,2453.672,36.2682
2023-11-23T04:36:49,2420,42.8014,5.9826,13.2979,4.36336,2453.649,36.2718
2023-11-23T04:39:49,2420,42.8014,5.9826,13.2977,4.36136,2453.672,36.2534
2023-11-23T04:42:49,2420,42.8014,5.9826,13.2979,4.35993,2453.664,36.2397
2023-11-23T04:45:49,2420,42.8014,5.9826,13.2980,4.36327,2453.672,36.2709
2023-11-23T04:48:49,2420,42.8014,5.9826,13.2974,4.36330,2453.649,36.2718
2023-11-23T04:51:49,2420,42.8014,5.9826,13.2979,4.36563,2453.649,36.2931
2023-11-23T04:54:50,2420,42.8014,5.9826,13.2973,4.36627,2453.627,36.2996
2023-11-23T04:57:49,2420,42.8014,5.9826,13.2980,4.36656,2453.649,36.3017
2023-11-23T05:00:49,2420,42.8014,5.9826,13.2975,4.35427,2453.649,36.1872
2023-11-23T05:03:49,2420,42.8014,5.9826,13.2982,4.35366,2453.627,36.1809
2023-11-23T05:06:49,2420,42.8014,5.9826,13.2979,4.35282,2453.635,36.1733
2023-11-23T05:09:49,2420,42.8014,5.9826,13.2977,4.35264,2453.627,36.1719
2023-11-23T05:12:49,2420,42.8014,5.9826,13.2979,4.35312,2453.627,36.1761
2023-11-23T05:15:49,2420,42.8014,5.9826,13.2979,4.35331,2453.649,36.1778
2023-11-23T05:18:49,2420,42.8014,5.9826,13.2976,4.35294,2453.672,36.1747
2023-11-23T05:21:49,2420,42.8014,5.9826,13.2981,4.35296,2453.612,36.1744
2023-11-23T05:24:49,2420,42.8014,5.9826,13.2981,4.35211,2453.649,36.1665
2023-11-23T05:27:49,2420,42.8014,5.9826,13.2979,4.35236,2453.649,36.1690
2023-11-23T05:30:49,2420,42.8014,5.9826,13.2980,4.35174,2453.612,36.1631
2023-11-23T05:33:49,2420,42.8014,5.9826,13.2978,4.35255,2453.627,36.1709
2023-11-23T05:36:49,2420,42.8014,5.9826,13.2982,4.35391,2453.635,36.1833
2023-11-23T05:39:49,2420,42.8014,5.9826,13.2976,4.35495,2453.635,36.1935
2023-11-23T05:42:49,2420,42.8014,5.9826,13.2977,4.35458,2453.627,36.1900
2023-11-23T05:45:49,2420,42.8014,5.9826,13.2978,4.35518,2453.612,36.1954
2023-11-23T05:48:49,2420,42.8014,5.9826,13.2979,4.35521,2453.649,36.1957
2023-11-23T05:51:49,2420,42.8014,5.9826,13.2975,4.35433,2453.604,36.1879
2023-11-23T05:54:49,2420,42.8014,5.9826,13.2982,4.35503,2453.649,36.1938
2023-11-23T05:57:49,2420,42.8014,5.9826,13.2980,4.35575,2453.590,36.2006
2023-11-23T06:00:49,2420,42.8014,5.9826,13.2979,4.35473,2453.635,36.1911
2023-11-23T06:03:49,2420,42.8014,5.9826,13.2979,4.35485,2453.627,36.1923
2023-11-23T06:06:49,2420,42.8014,5.9826,13.2978,4.35512,2453.627,36.1949
2023-11-23T06:09:49,2420,42.8014,5.9826,13.2974,4.35528,2453.649,36.1968
2023-11-23T06:12:49,2420,42.8014,5.9826,13.2979,4.35533,2453.627,36.1968
2023-11-23T06:15:49,2420,42.8014,5.9826,13.2978,4.35547,2453.649,36.1982
2023-11-23T06:18:49,2420,42.8014,5.9826,13.2977,4.35450,2453.627,36.1892
2023-11-23T06:21:49,2420,42.8014,5.9826,13.2978,4.35525,2453.627,36.1961
2023-11-23T06:24:49,2420,42.8014,5.9826,13.2977,4.35492,2453.604,36.1932
2023-11-23T06:27:49,2420,42.8014,5.9826,13.2976,4.35586,2453.627,36.2020
2023-11-23T06:30:49,2420,42.8014,5.9826,13.2978,4.35504,2453.619,36.1941
2023-11-23T06:33:49,2420,42.8014,5.9826,13.2977,4.35470,2453.604,36.1911
2023-11-23T06:36:49,2420,42.8014,5.9826,13.2977,4.35615,2453.641,36.2047
2023-11-23T06:39:49,2420,42.8014,5.9826,13.2975,4.35537,2453.627,36.1975
2023-11-23T06:42:49,2420,42.8014,5.9826,13.2977,4.35580,2453.627,36.2014
2023-11-23T06:45:49,2420,42.8014,5.9826,13.2978,4.35602,2453.627,36.2034
2023-11-23T06:48:49,2420,42.8014,5.9826,13.2981,4.35656,2453.627,36.2081
2023-11-23T06:51:49,2420,42.8014,5.9826,13.2978,4.35582,2453.627,36.2015
2023-11-23T06:54:49,2420,42.8014,5.9826,13.2978,4.35627,2453.635,36.2056
2023-11-23T06:57:49,2420,42.8014,5.9826,13.2974,4.35643,2453.612,36.2076
2023-11-23T07:00:49,2420,42.8014,5.9826,13.2979,4.35684,2453.604,36.2109
2023-11-23T07:03:49,2420,42.8014,5.9826,13.2978,4.35599,2453.641,36.2030
2023-11-23T07:06:49,2420,42.8014,5.9826,13.2978,4.35586,2453.604,36.2019
2023-11-23T07:09:49,2420,42.8014,5.9826,13.2979,4.35617,2453.627,36.2046
2023-11-23T07:12:49,2420,42.8014,5.9826,13.2979,4.35571,2453.627,36.2004
2023-11-23T07:15:49,2420,42.8014,5.9826,13.2979,4.35686,2453.604,36.2111
2023-11-23T07:18:49,2420,42.8014,5.9826,13.2978,4.35579,2453.627,36.2012
2023-11-23T07:21:49,2420,42.8014,5.9826,13.2980,4.35602,2453.604,36.2031
2023-11-23T07:24:49,2420,42.8014,5.9826,13.2980,4.35613,2453.619,36.2042
2023-11-23T07:27:49,2420,42.8014,5.9826,13.2977,4.35583,2453.619,36.2017
2023-11-23T07:30:49,2420,42.8014,5.9826,13.2978,4.35493,2453.627,36.1932
2023-11-23T07:33:49,2420,42.8014,5.9826,13.2978,4.35543,2453.590,36.1978
2023-11-23T07:36:49,2420,42.8014,5.9826,13.2978,4.35523,2453.582,36.1960
2023-11-23T07:39:49,2420,42.8014,5.9826,13.2978,4.35538,2453.641,36.1973
2023-11-23T07:42:49,2420,42.8014,5.9826,13.2978,4.35531,2453.627,36.1966
2023-11-23T07:45:49,2420,42.8014,5.9826,13.2979,4.35497,2453.604,36.1935
2023-11-23T07:48:49,2420,42.8014,5.9826,13.2979,4.35493,2453.619,36.1931
2023-11-23T07:51:49,2420,42.8014,5.9826,13.2975,4.35490,2453.627,36.1931
2023-11-23T07:54:49,2420,42.8014,5.9826,13.2979,4.35448,2453.559,36.1889
2023-11-23T07:57:49,2420,42.8014,5.9826,13.2975,4.35497,2453.544,36.1938
2023-11-23T08:00:49,2420,42.8014,5.9826,13.2978,4.35471,2453.582,36.1911
2023-11-23T08:03:50,2420,42.8014,5.9826,13.2979,4.35487,2453.604,36.1925
2023-11-23T08:06:49,2420,42.8014,5.9826,13.2975,4.35477,2453.544,36.1919
2023-11-23T08:09:49,2420,42.8014,5.9826,13.2975,4.35445,2453.582,36.1889
2023-11-23T08:12:49,2420,42.8014,5.9826,13.2976,4.35453,2453.604,36.1896
2023-11-23T08:15:49,2420,42.8014,5.9826,13.2979,4.35370,2453.627,36.1815
2023-11-23T08:18:49,2420,42.8014,5.9826,13.2978,4.35423,2453.604,36.1866
2023-11-23T08:21:49,2420,42.8014,5.9826,13.2978,4.35480,2453.604,36.1919
2023-11-23T08:24:49,2420,42.8014,5.9826,13.2981,4.35402,2453.619,36.1844
2023-11-23T08:27:49,2420,42.8014,5.9826,13.2980,4.35451,2453.604,36.1890
2023-11-23T08:30:49,2420,42.8014,5.9826,13.2978,4.35453,2453.582,36.1894
2023-11-23T08:33:49,2420,42.8014,5.9826,13.2979,4.35387,2453.582,36.1831
2023-11-23T08:36:49,2420,42.8014,5.9826,13.2978,4.35402,2453.604,36.1846
2023-11-23T08:39:49,2420,42.8014,5.9826,13.2978,4.35419,2453.604,36.1862
2023-11-23T08:42:49,2420,42.8014,5.9826,13.2978,4.35331,2453.559,36.1780
2023-11-23T08:45:49,2420,42.8014,5.9826,13.2980,4.35388,2453.582,36.1831
2023-11-23T08:48:49,2420,42.8014,5.9826,13.2979,4.35349,2453.596,36.1795
2023-11-23T08:51:49,2420,42.8014,5.9826,13.2975,4.35453,2453.582,36.1898
2023-11-23T08:54:49,2420,42.8014,5.9826,13.2978,4.35395,2453.582,36.1840
2023-11-23T08:57:49,2420,42.8014,5.9826,13.2978,4.35435,2453.559,36.1877
2023-11-23T09:00:49,2420,42.8014,5.9826,13.2977,4.35400,2453.567,36.1846
2023-11-23T09:03:49,2420,42.8014,5.9826,13.2974,4.35404,2453.582,36.1852
2023-11-23T09:06:49,2420,42.8014,5.9826,13.2981,4.35331,2453.544,36.1778
2023-11-23T09:09:49,2420,42.8014,5.9826,13.2980,4.35466,2453.627,36.1905
2023-11-23T09:12:49,2420,42.8014,5.9826,13.2978,4.35428,2453.582,36.1871
2023-11-23T09:15:49,2420,42.8014,5.9826,13.2978,4.35310,2453.559,36.1761
2023-11-23T09:18:49,2420,42.8014,5.9826,13.2977,4.35393,2453.544,36.1839
2023-11-23T09:21:49,2420,42.8014,5.9826,13.2979,4.35377,2453.567,36.1822
2023-11-23T09:24:49,2420,42.8014,5.9826,13.2980,4.35342,2453.567,36.1789
2023-11-23T09:27:49,2420,42.8014,5.9826,13.2979,4.35257,2453.596,36.1710
2023-11-23T09:30:49,2420,42.8014,5.9826,13.2979,4.35370,2453.582,36.1815
2023-11-23T09:33:49,2420,42.8014,5.9826,13.2976,4.35376,2453.604,36.1824
2023-11-23T09:36:49,2420,42.8014,5.9826,13.2978,4.35409,2453.582,36.1853
2023-11-23T09:39:49,2420,42.8014,5.9826,13.2978,4.35370,2453.582,36.1816
2023-11-23T09:42:49,2420,42.8014,5.9826,13.2975,4.35412,2453.604,36.1859
2023-11-23T09:45:49,2420,42.8014,5.9826,13.2977,4.35414,2453.582,36.1859
2023-11-23T09:48:49,2420,42.8014,5.9826,13.2973,4.35400,2453.604,36.1849
2023-11-23T09:51:49,2420,42.8014,5.9826,13.2978,4.35372,2453.582,36.1819
2023-11-23T09:54:49,2420,42.8014,5.9826,13.2979,4.35370,2453.596,36.1815
2023-11-23T09:57:49,2420,42.8014,5.9826,13.2975,4.35428,2453.559,36.1874
2023-11-23T10:00:49,2420,42.8014,5.9826,13.2979,4.35436,2453.582,36.1878
2023-11-23T10:03:49,2420,42.8014,5.9826,13.2979,4.35444,2453.567,36.1885
2023-11-23T10:06:49,2420,42.8014,5.9826,13.2978,4.35466,2453.604,36.1906
2023-11-23T10:09:49,2420,42.8014,5.9826,13.2980,4.35469,2453.604,36.1907
2023-11-23T10:12:49,2420,42.8014,5.9826,13.2979,4.35469,2453.567,36.1907
2023-11-23T10:15:49,2420,42.8014,5.9826,13.2977,4.35333,2453.604,36.1783
2023-11-23T10:18:49,2420,42.8014,5.9826,13.2979,4.35437,2453.604,36.1878
2023-11-23T10:21:49,2420,42.8014,5.9826,13.2977,4.35479,2453.582,36.1920
2023-11-23T10:24:49,2420,42.8014,5.9826,13.2977,4.35383,2453.619,36.1830
2023-11-23T10:27:49,2420,42.8014,5.9826,13.2977,4.35404,2453.604,36.1850
2023-11-23T10:30:49,2420,42.8014,5.9826,13.2975,4.35366,2453.604,36.1815
2023-11-23T10:33:49,2420,42.8014,5.9826,13.2981,4.35369,2453.582,36.1813
2023-11-23T10:36:49,2420,42.8014,5.9826,13.2979,4.35290,2453.596,36.1741
2023-11-23T10:39:49,2420,42.8014,5.9826,13.2975,4.35405,2453.582,36.1852
2023-11-23T10:42:49,2420,42.8014,5.9826,13.2978,4.35396,2453.582,36.1841
2023-11-23T10:45:49,2420,42.8014,5.9826,13.2979,4.35414,2453.559,36.1857
2023-11-23T10:48:49,2420,42.8014,5.9826,13.2978,4.35417,2453.619,36.1860
2023-11-23T10:51:49,2420,42.8014,5.9826,13.2974,4.35423,2453.582,36.1870
2023-11-23T10:54:49,2420,42.8014,5.9826,13.2978,4.35430,2453.604,36.1872
2023-11-23T10:57:50,2420,42.8014,5.9826,13.2976,4.35357,2453.582,36.1806
2023-11-23T11:00:49,2420,42.8014,5.9826,13.2975,4.35330,2453.582,36.1782
2023-11-23T11:03:49,2420,42.8014,5.9826,13.2978,4.35247,2453.582,36.1701
2023-11-23T11:06:49,2420,42.8014,5.9826,13.2978,4.35375,2453.604,36.1822
2023-11-23T11:09:49,2420,42.8014,5.9826,13.2975,4.35336,2453.582,36.1787
2023-11-23T11:12:49,2420,42.8014,5.9826,13.2977,4.35506,2453.604,36.1945
2023-11-23T11:15:49,2420,42.8014,5.9826,13.2978,4.35323,2453.582,36.1773
2023-11-23T11:18:49,2420,42.8014,5.9826,13.2979,4.35403,2453.604,36.1846
2023-11-23T11:21:49,2420,42.8014,5.9826,13.2978,4.35271,2453.590,36.1724
2023-11-23T11:24:49,2420,42.8014,5.9826,13.2975,4.35315,2453.559,36.1768
2023-11-23T11:27:49,2420,42.8014,5.9826,13.2977,4.35314,2453.582,36.1765
2023-11-23T11:30:49,2420,42.8014,5.9826,13.2975,4.35321,2453.582,36.1773
2023-11-23T11:33:49,2420,42.8014,5.9826,13.2976,4.35292,2453.604,36.1746
2023-11-23T11:36:49,2420,42.8014,5.9826,13.2977,4.35405,2453.627,36.1850
2023-11-23T11:39:49,2420,42.8014,5.9826,13.2980,4.35377,2453.582,36.1822
2023-11-23T11:42:49,2420,42.8014,5.9826,13.2978,4.35362,2453.590,36.1809
2023-11-23T11:45:49,2420,42.8014,5.9826,13.2975,4.35477,2453.582,36.1919
2023-11-23T11:48:49,2420,42.8014,5.9826,13.2978,4.35346,2453.604,36.1795
2023-11-23T11:51:49,2420,42.8014,5.9826,13.2978,4.35292,2453.604,36.1744
2023-11-23T11:54:49,2420,42.8014,5.9826,13.2978,4.35295,2453.604,36.1747
2023-11-23T11:57:49,2420,42.8014,5.9826,13.2975,4.35340,2453.604,36.1792
2023-11-23T12:00:49,2420,42.8014,5.9826,13.2979,4.35287,2453.582,36.1738
2023-11-23T12:03:49,2420,42.8014,5.9826,13.2978,4.35276,2453.627,36.1729
2023-11-23T12:06:49,2420,42.8014,5.9826,13.2977,4.35298,2453.627,36.1750
2023-11-23T12:09:49,2420,42.8014,5.9826,13.2978,4.35303,2453.604,36.1754
2023-11-23T12:12:49,2420,42.8014,5.9826,13.2979,4.35294,2453.627,36.1744
2023-11-23T12:15:49,2420,42.8014,5.9826,13.2975,4.35263,2453.627,36.1719
2023-11-23T12:18:49,2420,42.8014,5.9826,13.2977,4.35233,2453.627,36.1690
2023-11-23T12:21:49,2420,42.8014,5.9826,13.2977,4.35356,2453.612,36.1804
2023-11-23T12:24:49,2420,42.8014,5.9826,13.2978,4.35279,2453.649,36.1731
2023-11-23T12:27:49,2420,42.8014,5.9826,13.2978,4.35347,2453.627,36.1795
2023-11-23T12:30:49,2420,42.8014,5.9826,13.2976,4.35346,2453.649,36.1796
2023-11-23T12:33:50,2420,42.8014,5.9826,13.2978,4.35300,2453.649,36.1750
2023-11-23T12:36:49,2420,42.8014,5.9826,13.2975,4.35235,2453.627,36.1693
2023-11-23T12:39:49,2420,42.8014,5.9826,13.2978,4.35258,2453.612,36.1712
2023-11-23T12:42:49,2420,42.8014,5.9826,13.2975,4.35240,2453.649,36.1697
2023-11-23T12:45:49,2420,42.8014,5.9826,13.2974,4.35232,2453.649,36.1691
2023-11-23T12:48:49,2420,42.8014,5.9826,13.2975,4.35323,2453.649,36.1775
2023-11-23T12:51:49,2420,42.8014,5.9826,13.2980,4.35365,2453.635,36.1809
2023-11-23T12:54:49,2420,42.8014,5.9826,13.2977,4.35253,2453.604,36.1708
2023-11-23T12:57:49,2420,42.8014,5.9826,13.2974,4.35283,2453.672,36.1739
2023-11-23T13:00:49,2420,42.8014,5.9826,13.2979,4.35271,2453.649,36.1723
2023-11-23T13:03:49,2420,42.8014,5.9826,13.2978,4.35365,2453.649,36.1812
2023-11-23T13:06:49,2420,42.8014,5.9826,13.2978,4.35274,2453.664,36.1727
2023-11-23T13:09:49,2420,42.8014,5.9826,13.2974,4.35125,2453.672,36.1591
2023-11-23T13:12:49,2420,42.8014,5.9826,13.2975,4.35240,2453.649,36.1698
2023-11-23T13:15:49,2420,42.8014,5.9826,13.2977,4.35226,2453.649,36.1683
2023-11-23T13:18:49,2420,42.8014,5.9826,13.2978,4.35347,2453.672,36.1795
2023-11-23T13:21:49,2420,42.8014,5.9826,13.2978,4.35218,2453.672,36.1674
2023-11-23T13:24:49,2420,42.8014,5.9826,13.2978,4.35297,2453.672,36.1747
2023-11-23T13:27:49,2420,42.8014,5.9826,13.2976,4.35259,2453.657,36.1714
2023-11-23T13:30:49,2420,42.8014,5.9826,13.2976,4.35262,2453.680,36.1717
2023-11-23T13:33:49,2420,42.8014,5.9826,13.2979,4.35313,2453.672,36.1762
2023-11-23T13:36:49,2420,42.8014,5.9826,13.2976,4.35386,2453.695,36.1833
2023-11-23T13:39:49,2420,42.8014,5.9826,13.2979,4.35345,2453.717,36.1792
2023-11-23T13:42:49,2420,42.8014,5.9826,13.2975,4.35248,2453.672,36.1704
2023-11-23T13:45:49,2420,42.8014,5.9826,13.2979,4.35223,2453.649,36.1678
2023-11-23T13:48:49,2420,42.8014,5.9826,13.2977,4.35224,2453.695,36.1681
2023-11-23T13:51:49,2420,42.8014,5.9826,13.2978,4.35339,2453.680,36.1788
2023-11-23T13:54:49,2420,42.8014,5.9826,13.2977,4.35264,2453.695,36.1718
2023-11-23T13:57:49,2420,42.8014,5.9826,13.2979,4.35263,2453.717,36.1715
2023-11-23T14:00:49,2420,42.8014,5.9826,13.2977,4.35305,2453.717,36.1756
2023-11-23T14:03:49,2420,42.8014,5.9826,13.2980,4.35279,2453.709,36.1729
2023-11-23T14:06:49,2420,42.8014,5.9826,13.2976,4.35220,2453.740,36.1678
2023-11-23T14:09:49,2420,42.8014,5.9826,13.2980,4.35356,2453.732,36.1801
2023-11-23T14:12:49,2420,42.8014,5.9826,13.2977,4.35465,2453.732,36.1906
2023-11-23T14:15:49,2420,42.8014,5.9826,13.2977,4.35336,2453.740,36.1785
2023-11-23T14:18:49,2420,42.8014,5.9826,13.2974,4.35256,2453.717,36.1714
2023-11-23T14:21:49,2420,42.8014,5.9826,13.2975,4.35260,2453.740,36.1716
2023-11-23T14:24:49,2420,42.8014,5.9826,13.2978,4.35276,2453.695,36.1729
2023-11-23T14:27:49,2420,42.8014,5.9826,13.2979,4.35247,2453.717,36.1700
2023-11-23T14:30:49,2420,42.8014,5.9826,13.2975,4.35414,2453.740,36.1860
2023-11-23T14:33:49,2420,42.8014,5.9826,13.2978,4.35275,2453.702,36.1727
2023-11-23T14:36:49,2420,42.8014,5.9826,13.2975,4.35273,2453.717,36.1728
2023-11-23T14:39:49,2420,42.8014,5.9826,13.2975,4.35266,2453.754,36.1721
2023-11-23T14:42:49,2420,42.8014,5.9826,13.2978,4.35257,2453.717,36.1710
2023-11-23T14:45:49,2420,42.8014,5.9826,13.2978,4.35278,2453.717,36.1730
2023-11-23T14:48:49,2420,42.8014,5.9826,13.2978,4.35278,2453.740,36.1730
2023-11-23T14:51:49,2420,42.8014,5.9826,13.2975,4.35261,2453.725,36.1717
2023-11-23T14:54:49,2420,42.8014,5.9826,13.2977,4.35200,2453.717,36.1658
2023-11-23T14:57:49,2420,42.8014,5.9826,13.2981,4.35352,2453.717,36.1796
2023-11-23T15:00:50,2420,42.8014,5.9826,13.2977,4.35303,2453.740,36.1755
2023-11-23T15:03:49,2420,42.8014,5.9826,13.2975,4.35289,2453.740,36.1743
2023-11-23T15:06:49,2420,42.8014,5.9826,13.2977,4.35214,2453.717,36.1671
2023-11-23T15:09:49,2420,42.8014,5.9826,13.2978,4.35213,2453.740,36.1669
2023-11-23T15:12:49,2420,42.8014,5.9826,13.2973,4.35379,2453.762,36.1829
2023-11-23T15:15:49,2420,42.8014,5.9826,13.2976,4.35387,2453.762,36.1833
2023-11-23T15:18:49,2420,42.8014,5.9826,13.2976,4.35338,2453.717,36.1788
2023-11-23T15:21:49,2420,42.8014,5.9826,13.2978,4.35279,2453.740,36.1730
2023-11-23T15:24:49,2420,42.8014,5.9826,13.2973,4.35250,2453.740,36.1709
2023-11-23T15:27:49,2420,42.8014,5.9826,13.2978,4.35369,2453.740,36.1815
2023-11-23T15:30:50,2420,42.8014,5.9826,13.2977,4.35380,2453.762,36.1827
2023-11-23T15:33:49,2420,42.8014,5.9826,13.2978,4.35197,2453.762,36.1654
2023-11-23T15:36:49,2420,42.8014,5.9826,13.2977,4.35328,2453.740,36.1778
2023-11-23T15:39:49,2420,42.8014,5.9826,13.2978,4.35248,2453.748,36.1702
2023-11-23T15:42:49,2420,42.8014,5.9826,13.2975,4.35283,2453.762,36.1737
2023-11-23T15:45:49,2420,42.8014,5.9826,13.2979,4.35377,2453.725,36.1822
2023-11-23T15:48:49,2420,42.8014,5.9826,13.2975,4.35315,2453.754,36.1768
2023-11-23T15:51:49,2420,42.8014,5.9826,13.2975,4.35194,2453.740,36.1655
2023-11-23T15:54:49,2420,42.8014,5.9826,13.2978,4.35203,2453.748,36.1660
2023-11-23T15:57:49,2420,42.8014,5.9826,13.2978,4.35336,2453.754,36.1784
2023-11-23T16:00:49,2420,42.8014,5.9826,13.2977,4.35241,2453.800,36.1696
2023-11-23T16:03:49,2420,42.8014,5.9826,13.2978,4.35117,2453.748,36.1579